Theta_e
330 329 327 327 326 325 326 326 325 326 324 319 316 316 316 316 316 317 318 319 319 316 309 306 308 310 309 311 317 319 316 312 310 315 319 320 321 322 322 322 322 321 319 317 317 318 319 321 322 323 323 323 322 321 319 318 317 315 313 312 313 312 311 311 311 311 311 309 309 308 309 310 310 309 309 310 310 309 309 309 309 308 308 309 310
330 327 326 326 326 325 326 325 324 325 324 321 320 319 317 316 316 316 315 315 314 309 305 305 306 306 306 309 315 317 314 311 311 315 318 319 321 322 322 322 320 319 317 316 315 315 317 320 322 322 323 323 322 321 320 319 318 316 315 314 313 313 312 311 311 311 311 311 310 309 310 311 310 309 310 310 310 310 309 309 309 309 309 309 309
328 326 325 325 325 326 326 324 323 323 323 322 322 321 318 316 316 315 313 311 308 306 305 306 305 305 305 307 311 313 312 311 311 315 316 317 318 319 321 322 318 315 315 315 315 314 315 318 320 321 321 320 319 319 318 318 317 317 317 316 314 313 313 312 311 311 312 312 311 311 311 311 310 310 310 310 310 310 310 310 309 309 309 310 310
326 325 324 325 325 326 325 323 322 323 322 322 322 321 319 318 316 314 310 307 306 306 307 306 306 306 305 306 307 309 310 310 311 314 315 316 316 316 318 320 318 315 314 314 314 314 314 315 317 317 317 316 316 316 316 316 316 315 316 316 315 314 313 313 312 311 312 313 313 312 311 311 310 311 310 309 309 310 310 310 310 310 309 310 310
325 324 324 324 325 326 325 323 322 322 323 323 323 321 319 318 317 312 308 307 307 307 308 308 308 308 307 306 305 306 309 310 310 311 313 313 313 312 313 316 317 315 314 314 313 313 314 314 314 315 315 315 315 315 315 315 315 314 315 315 315 314 314 313 312 311 313 314 314 312 311 310 311 311 310 309 309 309 310 310 310 310 309 310 310
325 324 324 324 326 325 324 323 323 322 323 324 323 321 319 319 318 313 308 308 310 310 310 310 310 311 312 310 307 305 307 309 309 309 310 309 309 308 309 312 314 314 313 313 312 312 313 314 314 314 314 314 314 314 314 314 314 314 314 314 314 314 314 313 312 312 314 314 313 313 311 311 311 311 311 310 309 309 310 310 310 309 310 310 310
324 325 326 325 325 324 323 323 323 322 323 323 322 321 319 319 318 314 310 310 312 313 312 312 311 312 313 313 311 309 308 308 308 309 310 309 308 307 306 308 310 311 311 312 312 313 314 314 313 314 314 314 314 313 313 313 313 313 314 314 314 314 314 313 312 313 314 314 313 312 312 311 311 311 311 311 310 309 309 309 310 310 310 310 309
325 325 324 323 323 323 322 322 323 323 323 323 322 320 319 319 318 315 312 312 313 314 314 313 313 313 314 314 314 313 312 311 309 308 309 310 309 308 307 308 309 311 311 312 313 314 315 314 314 314 314 314 313 312 312 313 314 315 315 315 314 314 314 313 314 314 314 314 313 312 312 312 312 311 311 311 310 310 309 309 310 310 310 309 309
324 324 323 322 323 324 322 321 322 323 323 322 321 320 319 319 318 315 315 315 315 315 316 315 313 313 314 314 314 314 314 314 311 309 308 308 309 309 309 310 311 312 313 313 313 314 314 315 314 314 314 314 314 314 313 313 314 314 314 315 315 315 315 314 315 315 314 314 313 313 313 313 312 312 311 311 311 311 310 310 310 310 309 309 309
324 324 324 324 323 324 323 322 323 323 323 322 321 321 320 320 318 316 317 318 316 315 316 316 313 313 314 314 314 314 314 314 314 312 309 308 308 309 310 310 311 312 313 313 312 312 313 314 314 314 314 314 313 314 314 314 314 314 314 315 315 315 315 315 315 315 314 314 314 313 313 313 313 312 312 312 311 311 310 310 310 310 310 310 310
324 323 324 323 323 323 323 323 323 322 322 323 321 320 320 319 318 317 317 319 318 317 317 317 314 313 314 314 315 314 314 314 314 314 313 311 310 309 309 310 310 311 311 312 312 312 312 313 313 313 313 313 313 313 313 313 314 314 314 314 314 315 314 314 315 315 315 314 314 314 313 313 313 313 313 312 312 311 311 310 310 310 310 310 310
322 322 322 323 323 323 322 322 322 321 321 322 321 320 319 319 318 318 317 318 319 318 318 318 317 315 315 315 315 315 315 315 315 315 314 314 313 312 311 310 310 310 310 311 312 312 312 312 312 312 311 311 312 312 311 311 312 312 312 313 314 315 315 315 315 315 315 315 314 314 313 313 313 313 313 313 312 312 311 311 311 311 310 310 310
321 321 321 321 322 322 322 322 322 321 321 322 321 321 319 319 319 319 318 318 318 318 318 319 318 317 317 316 316 316 316 316 316 316 316 315 314 314 314 313 312 311 310 310 310 311 311 311 312 312 311 311 311 311 310 310 310 310 310 311 312 314 315 315 315 315 315 315 315 315 314 314 313 313 313 313 313 312 312 311 311 311 311 310 310
318 317 318 318 319 320 320 320 320 320 321 321 321 321 320 320 320 320 320 320 319 318 318 319 318 318 318 318 317 317 317 316 316 317 317 316 315 314 314 314 314 314 313 312 312 311 311 310 310 310 310 310 310 310 310 310 310 310 310 310 311 313 314 315 315 315 316 316 315 315 315 315 314 314 313 313 312 312 312 311 311 311 311 311 311
312 312 313 313 314 316 317 318 318 319 319 320 320 320 320 319 320 320 320 320 319 317 317 319 319 319 319 319 319 319 319 318 318 318 318 318 317 316 315 314 314 315 315 314 314 314 313 313 312 312 311 311 311 310 310 311 311 312 312 312 312 312 313 314 315 315 316 316 315 315 315 315 315 314 314 313 312 312 312 311 311 311 311 311 311
309 309 309 309 310 311 312 314 315 316 317 318 318 319 319 319 320 319 319 319 319 318 318 319 321 320 320 320 320 320 320 320 320 320 320 319 319 318 318 317 316 315 315 315 315 315 315 315 314 314 314 314 314 314 313 314 314 314 314 314 314 314 314 315 315 316 316 315 315 315 315 315 315 314 314 313 312 312 312 312 312 312 312 311 309
307 307 307 307 307 307 308 309 311 312 313 314 315 316 317 318 319 319 319 319 319 319 320 320 320 320 320 320 320 320 320 320 321 321 320 320 320 320 319 319 319 318 317 317 316 316 315 315 315 315 315 316 316 316 316 316 316 316 316 316 316 316 316 316 316 316 316 315 315 315 315 315 314 314 313 313 312 312 312 312 312 312 311 308 304
307 306 306 305 305 305 305 305 306 308 310 311 313 314 314 316 317 317 318 318 318 318 318 319 318 318 318 318 318 318 319 319 320 320 320 319 319 319 319 319 319 319 319 318 318 318 317 316 316 316 316 316 317 317 317 317 317 317 316 317 317 316 316 316 317 317 316 316 315 315 315 315 314 313 313 312 312 312 312 312 312 310 307 304 301
307 307 307 307 306 306 305 304 304 304 305 306 308 309 310 311 312 313 314 315 315 316 316 316 316 316 316 316 316 316 317 317 318 318 318 318 318 318 318 318 318 318 318 318 318 318 318 318 318 317 317 317 317 317 318 318 317 317 316 316 316 316 315 315 316 317 316 316 316 315 314 313 313 313 312 312 312 311 311 311 309 306 303 301 300
303 304 305 306 307 307 307 307 306 305 304 304 304 304 305 305 306 307 308 309 310 311 312 314 314 314 315 315 315 315 315 315 315 316 316 316 316 316 316 316 317 317 317 317 317 317 317 317 317 317 317 317 317 317 317 318 317 317 317 316 315 315 315 314 314 315 316 316 315 314 313 313 313 312 312 312 311 310 309 308 306 303 301 300 299
300 300 301 301 302 303 303 304 304 304 304 303 303 302 302 302 303 303 303 304 304 305 306 308 309 311 312 312 313 313 313 313 314 314 314 314 314 314 315 315 316 316 316 316 316 316 316 316 316 316 316 316 316 315 316 317 317 317 317 316 315 315 315 314 314 314 314 314 314 313 313 313 312 311 311 310 308 307 307 305 303 302 300 299 299
300 300 300 300 300 300 300 301 301 301 301 301 301 301 301 300 300 300 301 301 301 301 302 302 303 304 305 306 306 306 307 308 309 311 312 313 313 313 314 314 314 315 315 315 315 315 315 314 314 314 314 314 314 313 313 314 315 316 316 316 316 316 316 316 314 314 313 313 313 313 312 312 311 310 309 307 305 305 305 303 301 300 299 299 298
299 299 299 299 299 299 299 299 299 299 299 299 299 299 299 299 299 299 299 299 299 299 299 299 300 300 300 300 300 300 301 301 302 303 305 307 309 311 313 313 313 313 313 313 314 314 314 314 313 313 312 312 312 312 312 312 313 315 316 316 316 316 316 316 315 313 313 313 313 312 310 310 309 307 305 305 304 303 302 301 300 299 299 298 298
299 299 299 299 299 298 298 298 298 298 298 298 298 298 298 298 298 298 298 298 298 298 298 298 299 299 298 299 299 299 299 299 299 299 299 300 301 303 306 309 311 312 312 312 312 313 313 314 314 313 312 312 312 313 313 312 312 313 315 316 316 317 317 316 315 314 313 312 311 309 307 306 306 305 304 304 303 302 300 299 299 299 298 298 297
299 299 298 298 298 297 297 298 298 298 298 298 298 298 298 298 298 298 298 298 298 298 298 298 298 298 298 298 298 298 298 298 298 299 299 299 299 299 300 301 304 307 309 310 311 312 313 313 314 314 314 313 313 313 313 311 310 311 312 314 315 315 316 316 315 313 311 309 307 305 304 304 304 304 304 303 301 300 299 299 298 298 298 297 295
298 297 297 297 297 297 297 298 298 298 298 298 298 298 298 298 298 298 298 298 298 298 298 298 298 298 298 298 298 298 298 298 298 299 298 299 299 300 300 300 300 301 304 307 309 311 312 313 313 314 315 315 314 312 312 311 310 309 310 312 314 314 315 316 314 312 309 307 305 305 304 304 303 302 302 300 299 298 298 298 298 297 296 295 294
297 297 297 297 297 297 297 298 298 298 298 298 298 298 298 298 298 298 298 298 298 298 298 298 298 298 298 298 298 298 298 298 298 299 298 298 299 299 300 300 300 301 302 304 307 309 311 312 313 313 315 315 314 312 311 310 309 308 309 312 314 313 313 313 311 309 308 306 305 305 304 303 302 301 300 299 298 298 298 297 296 295 294 294 294
297 297 297 297 297 297 298 297 297 297 297 297 297 297 297 297 297 297 297 297 297 297 297 297 297 297 298 298 298 298 298 298 298 298 298 299 298 299 300 300 301 301 302 303 305 308 309 310 311 312 313 313 311 310 309 309 309 309 309 311 313 312 311 310 308 307 307 306 305 305 303 302 300 299 298 298 297 297 296 295 294 294 294 293 293
297 297 297 297 297 298 297 297 297 297 296 296 296 296 296 296 296 296 296 296 296 296 296 297 297 297 297 297 297 297 297 297 297 297 298 298 298 299 299 300 301 301 302 303 304 306 307 308 308 309 310 310 309 308 308 308 309 310 310 311 312 311 310 309 307 306 306 305 304 303 302 301 299 298 297 297 296 295 295 294 293 293 293 293 293
297 297 297 297 297 297 297 297 297 296 296 296 295 295 295 295 295 295 296 296 296 295 296 296 296 296 296 296 296 296 296 297 297 297 297 298 298 298 299 300 300 301 303 304 305 306 306 307 307 308 308 308 308 308 308 308 309 309 309 310 311 311 310 308 307 305 304 303 302 301 300 299 299 297 297 296 295 294 293 293 293 293 293 293 293
297 297 297 297 297 297 296 296 296 296 295 295 295 296 296 296 296 295 295 295 295 295 295 295 295 295 295 295 295 295 295 296 296 297 297 297 298 298 299 299 300 300 302 304 305 306 306 306 306 306 306 307 308 308 308 309 309 309 308 309 310 310 308 307 305 303 302 301 300 300 299 298 297 296 295 294 293 293 293 293 293 293 293 293 293
297 297 297 297 296 296 295 295 295 295 295 295 295 296 296 296 296 296 296 295 295 295 295 295 294 294 294 294 294 294 294 295 296 296 296 296 297 298 298 299 300 300 301 302 303 305 305 305 305 304 304 305 306 308 308 308 308 308 308 308 308 307 306 305 303 302 300 299 299 298 297 296 295 294 293 293 293 293 293 293 293 293 293 293 293
297 297 296 296 296 295 295 295 295 295 295 295 295 296 296 296 297 297 297 296 296 296 296 295 295 294 294 294 294 294 295 295 295 296 296 296 297 298 299 299 300 301 301 302 302 303 304 304 303 303 303 304 305 306 307 307 307 307 307 306 305 303 303 302 300 299 298 298 297 297 296 295 294 293 293 293 293 293 293 292 292 293 293 293 293
297 296 296 295 295 294 294 295 295 295 295 295 295 296 296 296 297 297 297 298 297 297 297 296 295 295 295 295 295 295 295 295 296 296 296 296 297 298 299 299 299 301 301 302 302 303 303 303 303 303 304 304 305 305 306 305 304 305 305 303 302 300 300 299 298 297 297 297 296 296 294 293 293 293 293 293 292 292 292 292 292 292 292 292 292
296 295 294 294 294 294 294 294 295 295 295 295 296 296 296 296 296 296 296 297 298 298 298 297 296 296 295 295 295 295 295 295 296 296 296 297 298 298 299 299 299 301 301 302 303 303 303 303 303 304 304 305 305 305 304 303 303 302 302 301 300 299 298 297 297 297 297 297 296 295 294 293 293 293 292 292 292 292 292 292 292 292 292 292 292
295 294 293 293 293 294 294 294 295 295 295 296 296 296 296 296 296 296 296 297 297 298 298 298 297 297 296 296 295 295 296 296 296 297 297 297 298 298 299 299 300 301 302 303 303 303 302 302 303 304 304 304 303 302 302 302 302 301 301 300 299 298 298 297 297 297 297 297 296 295 294 293 293 292 292 292 292 292 292 292 292 292 292 292 292
295 294 293 293 294 294 294 295 295 295 296 296 296 296 296 296 296 296 297 298 298 298 298 298 298 298 298 297 297 297 297 297 297 297 297 298 298 298 299 299 300 301 303 303 303 302 303 303 303 303 303 302 301 300 301 300 300 299 299 298 298 298 298 298 298 297 297 297 296 294 293 292 292 292 292 292 291 291 291 291 291 291 291 291 291
295 295 294 293 294 294 294 295 296 296 296 296 296 296 296 296 296 296 297 298 298 298 298 299 299 299 299 298 298 298 298 298 298 298 298 298 298 299 299 299 300 301 302 302 302 302 302 302 302 301 301 300 299 299 300 300 299 298 298 297 297 297 298 298 297 297 296 296 295 293 292 292 292 292 291 291 291 291 291 291 291 291 291 291 290
295 295 294 293 294 294 294 295 296 296 296 296 297 296 296 296 296 296 296 298 298 298 298 298 298 298 298 298 298 298 298 298 298 298 298 299 299 299 299 299 300 300 300 300 301 302 301 301 300 299 299 299 299 299 299 299 298 297 297 296 297 297 298 297 297 296 296 295 294 292 292 292 291 291 291 291 290 291 291 291 291 291 291 290 290
295 295 295 294 293 294 294 295 296 296 296 296 297 296 296 296 296 295 296 296 297 297 297 297 297 297 298 298 298 298 298 298 298 299 299 299 299 298 298 299 300 300 300 301 301 301 300 300 299 298 298 299 299 299 298 298 297 297 297 297 297 297 297 296 296 295 295 294 293 292 291 291 291 290 290 290 290 290 290 290 290 290 290 290 290
295 295 295 294 294 294 294 295 296 296 296 296 296 296 296 296 296 295 295 295 296 296 296 296 297 297 297 297 298 298 298 299 298 298 298 298 298 297 297 298 299 300 300 300 300 300 300 299 299 299 299 299 299 299 298 298 298 298 297 297 297 296 296 295 295 295 294 293 292 291 291 291 290 290 290 290 290 290 290 290 290 290 290 290 290
295 295 295 295 295 294 294 295 295 296 296 296 296 296 296 296 296 295 295 295 295 295 296 296 296 296 297 297 297 298 298 299 299 298 298 298 297 297 297 298 299 299 299 299 299 299 300 299 299 299 299 299 298 298 298 298 298 298 297 296 296 295 295 295 294 294 293 292 292 291 290 290 290 290 289 290 289 290 290 290 290 290 290 290 290
295 295 295 295 295 295 294 294 295 295 296 296 296 295 295 296 296 295 295 295 295 294 295 295 296 296 296 296 296 297 297 298 298 298 298 298 298 297 298 298 298 298 299 299 299 299 300 299 299 299 298 298 298 298 298 298 298 297 297 296 296 295 295 294 293 292 292 292 291 291 290 290 290 289 289 289 289 290 290 290 290 290 290 290 290
295 294 295 295 295 295 295 295 294 294 294 295 295 295 295 295 296 295 294 294 294 294 294 295 295 295 295 295 295 295 296 296 297 298 298 298 298 298 298 298 298 298 298 299 299 299 300 299 299 299 299 298 298 298 298 298 297 297 296 296 295 295 294 293 292 292 292 291 291 290 289 290 290 289 289 289 289 290 290 290 290 290 290 290 290
295 294 294 295 295 295 295 295 295 294 294 294 294 294 295 295 295 295 294 294 293 293 294 295 295 294 294 294 294 295 295 296 296 297 298 298 299 299 299 299 298 298 298 299 299 299 299 299 299 299 298 298 298 298 297 297 296 295 295 294 294 293 292 292 291 291 291 291 291 290 289 289 289 289 289 289 289 289 290 290 290 290 290 290 290
295 294 294 294 295 295 295 295 295 295 295 294 294 294 294 295 294 294 294 294 293 293 294 294 294 294 294 294 294 295 295 296 296 297 297 298 298 298 298 298 299 299 299 299 299 299 298 298 298 298 297 297 297 297 296 295 294 294 293 293 292 292 292 292 292 291 291 290 290 288 288 288 289 289 288 288 288 289 290 290 290 290 290 290 289
295 294 294 294 294 295 295 295 295 295 295 294 294 294 294 294 294 294 294 294 293 293 294 294 294 294 294 294 295 295 296 296 296 296 296 297 297 297 297 297 298 298 298 298 298 298 298 298 297 297 296 296 296 296 295 294 293 293 292 292 292 292 292 291 290 289 289 288 288 287 288 288 288 288 288 288 288 289 289 290 290 290 290 290 289
295 294 294 294 294 295 295 295 295 295 295 294 293 293 293 293 293 293 293 293 293 294 294 294 293 294 294 295 295 295 296 296 296 296 296 296 296 296 296 296 297 297 297 296 296 296 295 295 295 295 296 296 295 294 293 292 292 292 292 291 291 291 290 290 288 287 287 287 287 287 288 288 287 287 288 288 288 289 289 290 290 290 289 289 289
295 295 294 293 294 294 294 294 294 295 295 294 293 292 292 292 292 292 293 293 294 294 294 294 293 294 295 295 295 295 295 295 295 294 294 294 293 293 293 294 294 294 294 294 294 294 294 295 295 295 295 294 293 292 291 291 291 291 291 290 289 288 288 287 287 286 286 287 287 287 287 287 287 287 288 288 288 289 289 290 290 289 288 289 290
295 295 294 293 293 294 294 294 294 294 295 295 293 292 291 292 292 292 293 294 294 294 294 294 294 294 294 294 295 295 295 294 294 293 293 293 293 292 293 293 293 294 294 294 294 295 295 295 295 294 293 293 292 292 291 291 290 290 289 288 288 287 287 287 286 286 286 287 287 287 287 288 288 288 289 289 289 289 289 289 289 289 288 289 290
295 295 294 293 292 292 293 294 294 293 294 295 294 293 292 292 292 293 293 294 294 294 294 294 294 294 294 294 294 294 294 294 294 294 294 294 294 294 294 294 294 294 294 294 294 294 293 293 292 292 291 291 291 290 289 289 289 289 289 288 287 287 286 286 287 287 287 287 288 288 289 290 290 289 289 290 290 290 289 289 289 289 289 289 289
Wind_Speed
24 22 21 20 20 21 19 17 15 12 11 13 13 11 7 4 4 4 4 5 7 7 5 4 6 6 7 8 10 10 9 5 5 8 8 8 9 9 9 10 12 12 11 10 9 9 10 12 15 17 17 17 17 16 16 17 18 17 15 14 13 12 11 7 4 4 8 9 8 7 5 4 5 4 5 4 3 2 3 3 3 2 1 3 5
21 19 18 19 20 20 20 19 16 13 13 13 11 9 6 4 4 4 4 6 6 5 4 5 6 7 7 9 10 10 9 6 7 9 8 9 10 10 10 10 10 11 10 9 9 9 9 11 14 16 16 16 16 16 16 16 17 17 16 16 15 13 14 12 9 7 6 7 9 9 7 6 6 6 7 6 4 3 3 2 2 1 2 3 4
20 18 18 19 20 19 19 19 18 15 13 12 10 8 6 6 5 5 5 5 5 4 5 6 7 7 7 9 10 10 8 6 7 10 10 9 10 10 11 11 10 10 10 9 8 8 9 12 14 16 16 15 15 15 15 15 15 16 17 18 16 15 15 15 13 10 8 8 10 9 8 8 8 8 9 7 6 5 5 5 4 4 4 5 5
19 19 19 19 20 20 19 19 20 17 13 12 11 9 7 6 5 5 5 4 4 4 5 5 6 6 6 8 9 8 7 6 7 11 11 10 10 10 11 12 11 11 11 11 10 9 10 12 15 16 16 15 15 15 15 14 13 13 15 17 18 17 17 17 16 13 11 11 10 9 8 9 9 10 10 9 8 7 7 6 6 6 7 7 7
18 18 19 19 20 21 20 20 20 18 16 15 13 11 8 5 4 4 4 4 4 4 5 6 5 3 2 3 6 7 7 6 7 9 10 10 11 11 12 13 13 13 12 12 12 13 12 12 14 15 16 15 15 14 13 12 12 11 12 14 16 17 19 19 18 16 14 12 11 10 10 10 10 10 11 11 11 10 8 8 8 8 8 8 8
18 18 19 20 20 20 20 20 19 18 18 17 15 13 11 6 3 4 5 5 5 4 6 6 5 4 4 3 1 5 7 7 7 8 9 10 11 12 13 14 14 13 12 12 12 15 16 15 14 14 14 14 14 13 13 13 13 13 12 13 14 16 19 20 19 18 16 13 11 11 12 12 12 12 11 12 12 13 12 10 10 10 10 10 10
17 17 16 15 14 15 18 19 18 17 18 18 16 15 12 8 5 5 6 6 6 3 3 3 2 2 2 3 3 1 4 5 7 9 10 9 10 11 13 14 13 12 12 12 12 13 15 16 16 16 15 14 14 14 13 12 12 11 11 11 13 15 19 21 21 19 17 14 13 13 12 13 13 13 12 13 14 14 14 13 12 12 12 11 12
12 14 13 11 11 14 19 19 17 17 18 17 16 15 14 11 8 7 8 7 6 4 2 1 1 1 2 2 2 2 2 2 4 9 11 10 9 11 12 13 12 11 12 13 13 13 14 15 16 16 15 15 14 14 13 12 12 11 10 11 12 14 17 19 20 19 17 15 14 14 13 13 14 14 14 15 16 16 16 16 15 14 13 13 14
12 14 14 14 13 13 16 17 16 17 17 16 15 15 15 13 10 9 10 8 7 6 4 4 4 4 5 5 5 5 4 3 3 5 10 11 10 11 12 12 12 11 12 13 13 13 14 15 15 15 15 14 14 13 13 12 12 12 12 12 13 14 15 17 17 18 18 16 15 15 15 15 15 16 16 16 17 17 17 17 17 16 15 15 16
12 13 12 12 12 12 15 17 17 17 16 16 16 15 14 14 13 13 13 10 9 8 7 7 7 7 8 9 9 8 7 6 5 4 6 9 10 11 12 12 12 12 12 12 13 14 15 16 16 16 16 15 15 15 14 14 14 14 15 15 16 16 17 17 17 17 18 18 18 18 18 18 18 18 18 18 17 17 18 19 18 17 17 17 18
13 13 12 11 11 12 14 16 15 13 14 15 13 13 14 14 15 16 15 12 11 10 8 8 9 9 11 11 11 11 10 10 9 8 6 6 8 10 11 12 13 14 14 14 14 15 16 18 19 18 18 18 18 18 17 17 17 17 18 18 18 18 19 19 18 17 18 18 19 20 20 21 21 21 20 20 19 19 19 19 19 19 19 18 19
15 14 13 13 12 11 11 13 12 12 13 13 12 13 15 14 14 14 14 13 13 12 10 10 11 12 13 13 13 12 12 11 11 12 12 10 8 9 10 12 13 15 16 17 17 17 18 19 20 21 20 20 20 20 20 20 21 22 22 21 20 20 20 20 19 19 19 20 20 21 22 22 23 23 23 23 22 22 21 21 21 20 20 20 20
18 17 16 15 14 12 12 12 12 12 12 12 13 14 15 14 13 13 13 14 14 14 13 13 12 13 14 15 15 15 14 13 12 12 13 15 14 13 12 12 13 14 16 17 18 19 19 20 21 22 22 22 22 22 22 23 24 24 25 24 23 22 22 22 22 21 21 21 21 22 23 24 25 24 23 23 23 23 23 22 22 21 21 21 20
22 22 21 20 18 16 15 14 14 12 11 11 12 13 12 13 13 13 15 16 15 14 15 15 15 15 15 14 15 15 15 15 14 13 13 15 17 19 18 17 16 16 16 16 18 19 20 21 22 22 23 24 24 24 24 24 24 25 26 26 26 25 25 25 25 24 23 23 23 23 23 24 25 24 23 23 23 22 23 23 22 22 21 20 20
25 24 23 22 21 18 16 15 15 14 12 10 10 10 9 9 11 12 13 15 15 16 16 17 17 18 18 17 17 16 15 15 16 16 15 15 17 19 21 22 22 21 21 20 20 21 21 22 23 24 24 24 25 26 26 26 26 26 26 27 28 28 29 29 28 26 25 25 25 24 24 24 24 24 24 23 22 22 22 21 21 21 20 20 20
23 21 21 19 18 17 16 15 14 14 12 11 10 9 9 8 8 9 8 10 12 15 17 18 18 19 20 21 20 20 18 17 17 17 17 18 18 19 21 22 23 24 25 25 25 25 25 26 27 27 27 27 27 27 27 28 29 29 28 28 29 30 30 30 30 29 28 27 26 25 25 26 25 24 24 22 21 21 21 20 19 20 20 20 20
19 17 16 15 13 12 12 11 11 11 10 10 9 9 8 7 7 7 7 7 9 11 14 16 16 18 19 20 21 21 20 19 19 18 18 18 19 20 21 22 24 25 26 27 27 28 29 30 31 31 31 31 30 30 30 30 31 32 32 32 33 33 32 31 31 30 30 29 29 28 29 28 25 22 22 22 22 23 22 20 20 21 20 19 17
12 11 10 9 8 7 7 5 5 5 5 6 6 6 6 6 7 7 8 9 9 11 13 14 14 15 16 17 19 20 20 19 19 20 20 20 20 20 20 21 22 25 27 28 29 29 30 30 32 33 33 33 33 32 32 32 34 35 35 36 37 37 35 34 34 34 33 32 32 32 31 30 27 24 23 23 24 24 22 20 20 19 17 16 14
5 5 7 7 5 5 5 5 5 3 2 2 4 6 7 8 9 10 11 12 13 14 15 15 16 16 17 18 18 20 20 20 20 21 21 21 22 22 22 22 22 23 24 26 27 28 29 29 31 32 33 34 34 33 33 35 37 37 38 39 40 40 39 39 38 38 36 36 37 34 30 28 28 27 26 24 23 22 19 18 17 16 15 14 13
7 7 8 8 7 8 9 10 10 10 9 8 8 9 10 11 13 14 15 16 17 17 18 19 19 19 20 20 21 22 23 24 23 23 23 23 24 24 24 25 25 24 24 24 24 25 25 26 28 29 30 32 32 32 34 37 38 38 39 40 41 42 42 40 39 40 40 39 36 33 30 30 30 28 26 24 22 20 18 17 16 15 13 12 11
9 9 10 10 10 10 11 12 13 14 14 14 14 14 15 15 16 18 19 20 21 22 23 24 24 24 24 24 24 25 26 27 28 27 27 27 27 27 28 27 27 27 27 27 26 25 24 24 25 26 27 28 29 30 32 34 36 37 38 39 40 43 42 39 39 41 41 38 34 31 31 31 30 27 24 22 20 19 17 16 14 13 11 10 11
9 10 11 12 13 13 14 14 15 16 16 17 18 18 19 19 20 21 21 22 23 24 25 26 27 28 28 29 29 30 30 31 32 31 31 31 31 31 31 31 29 30 30 31 30 28 26 24 24 24 25 26 27 27 28 29 32 35 36 36 37 39 39 38 38 37 37 36 34 32 32 31 28 25 22 20 18 16 14 13 12 10 9 10 11
11 12 13 13 13 14 15 16 16 17 17 18 19 20 21 21 22 22 23 23 24 24 25 26 28 29 29 30 30 31 32 33 33 33 34 34 35 35 36 36 34 33 33 33 32 31 28 26 24 24 25 26 27 26 26 26 28 30 31 31 33 34 34 35 34 31 32 34 34 33 31 28 25 22 20 18 16 13 12 11 10 9 9 11 13
14 15 15 15 15 15 16 16 17 17 18 18 19 20 21 21 21 22 22 23 24 25 25 26 28 29 30 30 29 29 30 31 31 31 32 32 34 36 38 39 39 37 37 36 34 33 32 29 26 25 26 27 28 27 27 26 25 26 27 28 30 32 34 35 33 31 32 34 33 31 28 25 22 20 18 15 13 12 11 10 8 8 10 11 13
15 16 16 16 17 17 17 17 18 18 18 19 20 20 21 21 22 22 23 24 25 26 27 27 28 29 30 30 30 29 29 28 28 28 28 29 31 32 34 36 38 39 40 39 36 35 34 32 29 28 28 28 28 29 28 26 25 24 24 26 29 32 35 36 34 32 32 32 30 26 23 21 20 18 15 14 14 13 11 8 7 8 10 12 14
16 15 16 16 17 17 17 18 18 19 19 20 20 21 22 22 23 24 25 27 28 28 29 30 30 31 32 32 32 31 30 29 28 27 26 27 28 29 30 32 33 35 38 39 37 36 35 34 33 31 29 29 29 29 28 26 25 23 23 25 29 33 38 38 34 33 32 29 25 22 20 20 18 16 15 14 14 11 9 7 7 9 11 12 13
15 15 15 16 16 17 18 19 19 20 21 21 21 21 22 23 25 26 27 28 29 30 30 30 31 32 33 33 34 34 33 31 30 28 27 27 27 27 28 28 29 31 33 35 36 35 35 35 34 31 30 29 29 28 28 27 26 25 23 24 27 32 35 34 32 32 30 26 23 20 19 19 17 16 15 14 12 9 7 7 8 9 10 11 12
16 16 16 16 17 18 18 19 20 21 22 22 22 22 22 23 24 26 27 28 29 29 30 30 30 30 31 33 34 35 34 33 30 28 27 26 25 24 24 25 25 27 29 30 32 32 33 34 33 31 30 28 25 25 27 27 25 24 23 23 23 23 26 26 25 26 25 23 21 20 20 19 17 15 14 12 10 8 7 7 8 9 10 11 12
16 17 17 17 18 19 19 20 20 21 21 21 20 20 20 21 22 23 23 23 24 26 27 28 28 28 29 31 32 33 34 33 31 29 26 24 23 22 21 21 20 22 24 26 27 28 28 29 29 29 28 26 22 22 24 24 23 23 23 22 21 22 25 25 24 25 24 22 21 21 20 18 16 14 13 11 10 8 7 7 8 9 10 10 11
16 17 17 18 18 19 19 19 20 20 20 19 17 16 14 14 15 17 18 18 18 20 22 24 25 26 28 29 29 31 33 33 31 30 27 25 23 22 21 20 19 19 21 22 23 23 23 23 23 22 22 21 20 21 22 23 24 24 23 22 25 27 29 28 26 25 24 23 21 20 17 16 15 15 13 11 10 8 7 7 8 8 9 9 9
17 17 17 17 18 18 18 18 17 16 15 14 13 13 12 11 10 11 14 15 15 16 18 19 20 21 24 26 27 28 30 31 31 29 27 25 24 23 21 20 19 20 21 23 23 21 19 18 18 17 17 18 20 22 23 24 25 25 24 24 28 29 30 29 27 24 24 23 21 17 15 14 15 14 12 10 9 7 6 6 6 7 7 8 9
18 18 17 17 17 18 16 15 13 12 10 10 11 13 15 14 11 9 11 13 14 15 15 16 17 18 19 21 23 25 27 29 29 28 25 24 24 23 21 20 20 21 23 25 25 23 20 18 17 16 16 17 20 22 24 25 26 25 25 27 30 30 28 26 25 24 24 22 19 16 15 15 14 13 11 9 7 6 5 5 5 6 7 8 9
19 17 16 16 17 15 13 12 11 9 9 11 13 14 16 18 17 13 12 12 13 13 13 15 16 17 19 20 22 24 26 28 28 26 22 20 20 20 19 20 21 22 24 26 26 25 22 20 19 18 17 17 19 22 24 26 27 27 28 31 31 28 25 24 23 24 23 19 16 16 15 14 13 10 8 7 5 4 4 4 5 6 7 9 10
17 15 15 15 14 12 11 11 9 8 10 13 15 16 17 18 20 21 19 17 15 14 14 15 14 15 17 19 21 23 25 26 25 23 20 18 19 19 19 21 22 23 24 25 25 24 23 22 21 19 18 17 19 22 25 28 29 30 31 30 26 23 22 23 23 23 20 17 15 14 13 11 9 7 6 5 4 3 3 4 5 7 9 10 11
17 14 14 12 10 10 11 10 8 8 10 12 13 16 17 17 19 21 23 23 21 19 18 17 15 15 16 16 17 19 22 22 21 19 18 18 18 19 20 21 23 24 24 25 25 24 23 21 19 17 18 19 21 24 27 30 32 30 28 26 24 23 24 24 23 20 16 14 12 11 9 7 6 5 5 4 2 2 4 5 7 8 10 11 11
18 14 11 9 8 9 10 9 9 9 10 11 12 14 15 17 19 21 22 23 22 20 19 18 18 17 15 13 14 17 18 18 16 15 16 17 18 19 20 21 23 23 22 21 21 21 20 19 18 17 19 22 24 26 29 31 30 26 23 23 24 25 24 22 19 15 12 11 9 8 6 6 5 4 3 2 2 3 5 6 8 9 10 10 10
19 14 9 7 7 8 8 9 9 9 9 10 13 14 15 17 20 22 23 22 21 19 18 19 20 18 14 12 13 16 16 15 14 14 15 16 17 18 19 21 22 22 19 15 15 16 17 18 19 20 21 23 25 27 29 29 26 23 21 22 23 21 19 16 13 11 10 8 6 5 5 4 4 3 2 2 2 4 5 7 7 7 7 7 7
18 15 10 7 6 7 8 9 9 10 9 10 12 14 16 18 21 23 23 22 20 18 16 16 18 18 17 17 16 16 14 13 13 14 15 16 17 17 18 18 18 18 17 13 11 13 14 15 17 19 20 22 25 27 27 25 23 20 20 21 19 16 14 13 12 10 8 5 4 4 4 3 3 2 1 1 3 4 5 5 5 4 4 4 4
17 15 11 9 8 8 9 10 11 11 11 11 12 14 16 18 21 23 23 21 20 18 17 17 17 17 18 18 18 18 17 14 12 11 14 16 16 16 16 14 13 15 16 12 9 10 11 11 12 14 16 21 24 23 22 23 22 21 20 19 16 13 12 12 11 9 6 3 3 3 3 3 3 2 1 2 3 4 4 4 3 2 3 4 4
16 15 12 10 9 8 9 10 12 13 13 13 13 14 16 18 20 22 23 21 19 18 17 18 18 17 17 17 18 19 20 16 11 10 12 13 11 10 9 9 9 11 11 9 8 9 10 10 11 13 16 20 21 21 22 22 21 19 18 15 13 11 11 10 8 6 4 2 3 4 4 4 3 2 1 2 3 3 3 3 3 3 5 5 4
15 15 12 10 10 10 9 11 12 13 13 14 14 14 16 18 18 20 21 21 18 17 17 18 18 18 17 17 16 17 19 16 11 10 10 8 6 5 4 4 4 2 5 8 8 9 10 11 11 13 16 19 20 21 20 19 16 15 14 12 11 10 10 8 6 4 3 3 4 5 5 4 2 0 1 3 3 3 4 4 3 5 5 4 5
14 15 13 10 10 11 11 12 13 13 13 15 15 16 17 17 16 18 19 19 18 17 17 17 18 18 17 15 14 14 15 15 13 10 8 7 5 5 6 7 7 6 2 3 5 7 9 13 15 16 17 18 17 17 16 15 13 12 11 11 10 10 9 8 6 4 4 4 4 4 4 3 1 1 2 3 4 4 3 3 5 6 4 4 5
13 15 15 13 10 11 12 14 15 15 15 16 16 17 17 15 15 17 17 17 17 17 17 16 17 18 17 15 13 12 13 14 14 12 10 7 6 6 6 6 7 7 5 3 2 1 6 13 17 16 14 14 15 13 12 11 9 8 9 9 9 9 7 6 5 4 3 3 3 3 3 2 0 1 2 3 3 2 2 4 5 4 4 4 4
12 14 15 15 13 12 12 15 16 16 17 17 17 17 16 14 14 15 16 15 16 17 16 15 16 17 16 16 16 16 16 16 15 14 12 9 8 6 5 4 5 5 4 3 3 3 5 11 15 14 12 14 15 13 10 9 8 8 8 7 6 5 4 3 3 3 1 1 2 2 2 2 1 2 3 3 2 2 4 4 3 2 2 3 4
12 13 14 14 14 14 13 13 15 16 16 16 16 15 14 13 13 14 14 14 15 15 14 13 14 15 16 16 17 18 18 18 17 15 12 9 7 6 5 4 4 4 4 3 3 4 6 9 12 13 14 15 14 12 10 10 10 8 6 4 3 4 4 3 3 3 3 4 4 3 2 2 2 2 2 2 1 2 5 3 2 2 2 3 4
11 13 13 13 14 14 14 13 12 11 12 12 12 11 12 12 13 12 12 12 13 13 11 11 12 14 15 16 17 17 17 18 17 16 13 10 7 7 6 5 2 2 4 4 4 6 8 10 11 13 15 15 13 11 11 11 10 9 7 6 6 5 5 5 5 5 5 5 5 3 3 3 3 3 3 2 1 2 4 1 2 3 3 3 4
10 12 13 13 13 14 14 13 11 8 5 5 7 9 12 12 10 8 8 9 10 11 12 11 11 12 13 14 14 15 16 16 15 14 13 10 7 6 5 4 4 3 2 2 2 5 10 12 13 15 17 16 12 11 11 11 10 9 8 8 7 6 5 5 6 6 6 5 5 4 4 4 4 4 3 2 1 1 2 1 2 1 2 3 4
8 11 12 12 12 13 13 12 10 8 5 4 6 8 9 8 5 3 4 6 9 12 13 13 11 10 10 11 11 13 14 13 12 11 11 10 8 7 5 4 4 5 5 7 8 11 15 18 18 18 17 13 11 11 10 9 8 7 6 5 5 4 4 5 5 5 5 5 5 5 4 4 4 4 3 1 1 2 1 1 0 2 3 3 5
7 9 11 11 11 10 11 11 11 8 6 5 4 5 7 8 7 5 5 7 9 12 13 13 11 10 10 11 11 11 11 10 10 10 10 11 11 12 12 12 12 12 13 15 17 18 19 18 16 14 12 11 10 10 8 6 5 4 3 3 3 3 4 5 5 5 5 5 5 4 4 3 3 2 2 2 3 3 2 1 1 3 3 4 6
7 8 9 11 10 8 8 9 10 10 8 7 6 7 9 9 9 8 7 8 9 11 13 13 12 12 12 12 11 11 10 8 8 9 10 10 12 13 14 14 14 13 13 14 15 15 14 13 12 11 10 9 8 6 4 3 2 2 1 1 2 3 4 5 5 5 5 5 4 4 3 3 3 4 4 5 5 3 1 1 2 4 5 5 5
6 7 8 9 10 9 7 7 8 9 9 8 8 8 9 9 9 8 8 9 9 11 12 12 12 11 11 11 11 11 11 10 9 9 8 8 8 9 9 10 10 10 11 12 12 12 12 12 11 11 10 8 6 5 4 3 3 3 3 4 4 5 5 6 6 6 6 6 6 6 6 5 5 5 4 4 3 2 0 2 3 5 6 6 5
Wind_Direction
211 205 197 197 200 199 196 193 191 201 213 213 209 204 201 213 244 270 288 293 302 306 291 247 214 223 231 225 222 228 242 244 192 179 184 190 190 192 188 178 181 188 185 177 171 169 177 179 179 180 181 176 171 173 176 179 189 200 205 212 217 216 214 211 204 189 181 177 181 189 199 207 198 173 151 142 135 144 174 186 187 172 55 28 16
213 207 201 200 203 202 194 189 192 201 207 208 211 210 207 226 254 269 280 288 295 286 244 212 204 213 221 222 222 228 246 246 198 190 195 197 196 201 201 192 190 194 190 184 176 168 168 172 174 173 174 175 175 178 184 188 195 202 206 212 215 217 220 222 223 223 214 201 198 203 209 208 199 177 162 163 163 173 194 205 206 254 308 327 339
215 212 207 205 205 202 196 193 196 201 201 201 211 221 228 242 258 265 269 277 274 238 216 208 204 208 215 221 226 232 245 245 207 200 203 205 205 208 209 206 203 201 195 190 185 178 169 165 166 167 168 173 178 181 186 191 198 204 210 215 218 219 222 226 229 233 241 231 217 215 212 203 193 177 172 180 188 194 209 224 245 266 275 286 304
213 213 212 208 206 203 202 202 202 200 198 201 208 216 231 249 260 261 261 259 239 211 198 191 192 202 216 223 228 232 239 235 212 205 209 216 220 219 215 212 211 209 203 198 195 191 181 169 166 167 168 173 176 178 181 186 193 202 211 216 220 224 226 228 231 237 247 243 232 225 212 197 187 179 181 193 207 215 222 232 249 259 262 273 290
211 214 214 212 206 197 197 202 204 202 198 200 206 208 213 234 259 261 250 219 196 170 144 143 145 137 159 224 230 229 225 216 209 208 212 220 227 226 218 213 213 215 214 212 208 200 194 186 178 175 179 185 189 192 197 205 213 220 222 220 221 224 229 231 231 235 244 247 243 229 208 193 189 191 194 201 215 227 234 241 251 257 262 270 281
211 214 211 209 202 190 191 199 203 204 200 199 206 208 205 209 234 252 239 208 188 152 124 127 123 103 72 41 257 232 221 209 206 210 213 217 221 220 215 213 214 218 222 224 216 204 200 201 200 198 200 205 212 217 222 228 233 234 229 223 219 219 225 230 230 234 241 243 240 231 214 198 196 200 203 210 222 233 241 247 251 255 261 267 276
205 210 207 206 202 187 189 198 199 203 205 203 206 208 202 197 205 223 221 206 195 170 131 129 120 106 59 30 24 280 237 222 216 213 211 213 217 215 210 210 213 215 217 218 211 203 204 207 211 215 217 223 231 236 238 237 235 229 220 216 212 211 217 224 228 234 238 231 225 226 219 209 205 206 210 218 226 235 244 252 253 254 258 264 274
194 203 205 212 211 188 187 198 201 201 206 207 207 209 203 196 199 211 207 200 203 203 197 224 235 223 249 285 322 312 298 288 245 223 216 214 216 216 209 205 207 208 208 210 209 206 207 211 215 218 221 227 235 240 245 248 243 232 220 214 212 211 216 224 231 236 236 227 220 219 219 219 217 214 215 222 229 234 241 248 251 253 254 260 271
188 195 200 206 207 189 185 199 204 199 202 205 204 206 204 196 197 206 203 196 204 216 226 239 240 241 247 250 258 266 275 302 299 250 232 223 216 215 214 211 211 210 209 212 215 214 213 215 218 221 224 227 232 240 246 253 255 250 243 237 234 232 232 233 236 236 235 232 227 222 220 223 226 224 223 227 233 237 241 245 247 249 251 258 269
175 178 184 188 190 184 183 191 196 195 198 202 203 207 206 198 198 205 205 198 199 210 226 236 236 242 250 251 254 258 262 269 282 284 260 240 230 224 221 223 225 224 222 222 224 224 222 222 223 226 229 232 236 243 246 249 254 257 257 256 254 252 249 246 243 237 235 237 236 232 228 229 231 232 233 235 237 238 240 243 245 247 251 260 270
150 149 152 154 161 171 179 184 184 184 194 199 198 204 207 202 201 205 205 204 202 204 219 236 241 247 251 253 256 259 265 270 268 270 272 261 250 243 238 238 239 240 240 239 237 234 230 229 230 232 236 238 242 247 250 252 253 254 256 256 255 255 255 253 252 248 245 244 242 239 236 236 236 236 237 240 240 238 239 242 244 248 253 261 270
137 136 136 140 147 150 161 170 167 171 187 188 179 188 200 203 205 206 207 213 214 209 212 226 240 248 250 252 255 256 262 269 267 264 264 263 261 257 253 250 249 249 249 248 247 245 242 238 237 239 242 244 245 249 252 256 257 257 257 255 253 250 247 246 248 251 253 253 251 249 247 243 240 239 240 240 240 239 240 242 244 248 255 261 269
123 122 121 125 130 129 136 150 154 162 174 176 176 187 198 203 205 207 211 219 220 216 215 220 231 244 248 249 251 253 256 260 262 263 263 263 263 262 259 257 257 257 256 254 254 252 251 250 248 246 247 248 250 252 254 256 257 257 258 256 253 248 243 240 242 247 252 255 256 257 257 253 247 245 244 241 240 240 241 243 246 250 256 263 272
115 115 113 113 114 117 122 129 133 137 145 158 174 186 195 200 204 209 218 223 221 218 219 222 228 237 243 244 247 251 255 258 261 262 262 261 261 261 261 260 259 260 261 261 261 260 260 260 258 256 255 256 258 260 260 259 257 256 257 256 254 251 246 243 244 247 251 253 253 253 256 257 252 249 247 244 240 239 240 242 246 252 259 269 281
110 110 110 110 111 113 115 118 121 122 125 137 155 166 175 187 195 204 216 222 221 220 223 227 231 235 239 241 242 246 252 257 262 265 265 263 261 260 260 260 260 261 262 262 263 263 265 265 265 265 264 264 265 265 266 265 263 261 260 259 257 254 251 249 249 251 255 256 254 252 253 254 252 249 248 244 237 236 239 241 246 255 265 276 284
107 106 106 105 105 107 111 116 119 121 124 130 138 145 153 163 176 185 195 205 211 216 222 229 233 236 239 242 243 244 247 253 258 262 265 266 265 263 262 260 260 260 261 262 262 262 263 264 265 267 267 269 270 271 271 268 266 265 265 263 260 256 254 252 251 252 255 256 254 252 251 252 251 249 247 243 236 235 239 244 253 263 271 277 280
102 99 100 100 98 100 105 111 120 126 132 136 138 142 149 158 172 183 191 198 204 212 220 228 234 237 239 244 247 248 249 250 253 256 257 260 262 263 264 264 262 261 260 260 260 260 260 260 262 263 265 268 272 273 273 270 267 266 265 265 264 259 255 253 252 253 254 255 255 254 250 247 245 241 239 239 241 243 246 251 259 265 269 273 277
90 80 76 80 80 81 87 89 103 127 146 155 159 165 170 179 191 201 211 218 219 223 226 229 235 239 241 244 248 250 249 247 246 248 250 252 253 255 258 261 262 262 261 260 259 259 259 258 258 260 261 264 267 269 269 269 268 267 266 265 263 260 257 254 253 253 253 254 254 252 245 241 237 232 232 236 243 249 251 253 256 259 264 270 279
63 27 11 15 11 2 3 359 353 344 303 246 230 228 227 227 228 228 230 232 234 236 238 238 238 242 245 247 249 252 252 248 246 245 247 250 252 253 255 257 258 259 261 262 262 262 262 261 260 260 260 261 263 264 265 265 266 268 269 266 262 260 260 257 255 257 258 254 250 244 239 237 236 234 235 238 243 248 250 250 252 257 264 273 282
19 356 345 340 325 313 311 309 309 311 308 300 289 273 264 259 254 252 252 251 250 250 249 248 248 248 250 251 252 254 255 254 252 250 250 251 254 256 257 258 259 259 260 262 265 266 267 266 265 265 265 265 264 264 265 266 268 269 268 265 263 263 262 256 252 257 260 254 246 242 242 242 240 236 235 236 238 240 242 246 254 261 269 278 287
358 348 339 335 328 321 314 306 302 301 299 296 294 290 284 279 272 268 266 265 263 261 259 257 256 255 255 256 257 257 258 259 258 257 257 257 258 259 259 260 261 262 261 261 262 264 266 268 269 270 270 270 270 268 267 269 272 271 267 264 264 266 265 259 253 254 254 250 246 244 243 239 234 230 228 228 229 232 238 247 258 265 273 283 292
340 334 328 325 323 318 313 308 303 300 297 294 292 291 289 287 285 282 278 276 273 271 269 267 266 264 262 261 261 262 262 262 262 261 260 260 261 262 262 262 262 263 263 261 260 260 261 265 270 271 272 272 273 272 270 269 270 271 271 270 269 269 269 267 262 256 250 247 245 240 233 227 223 221 219 219 223 229 237 247 255 263 275 288 296
338 333 327 321 316 311 307 305 302 301 300 298 296 294 292 292 291 289 287 286 284 281 279 277 276 274 272 270 268 267 265 265 265 264 262 261 260 260 261 263 263 265 265 265 263 262 261 263 268 271 273 274 275 276 275 271 266 268 272 274 275 274 273 270 265 257 248 243 237 227 219 215 214 213 211 215 223 231 237 242 249 263 281 293 300
334 331 327 324 322 319 316 315 313 310 308 305 302 300 298 296 295 293 292 291 290 289 288 285 283 281 279 277 275 272 270 267 266 265 264 264 261 259 258 260 262 264 266 268 268 266 263 263 266 270 274 276 277 278 278 275 271 268 267 270 273 275 273 269 262 251 240 231 221 212 206 204 204 207 210 218 226 229 230 234 246 270 287 298 304
329 328 326 325 324 323 321 320 318 317 315 312 309 307 303 300 298 296 296 296 295 294 293 291 289 287 285 283 280 277 275 273 269 266 264 263 263 262 260 259 260 261 264 266 267 267 264 263 264 267 272 276 278 279 280 279 277 271 267 267 268 267 267 265 256 239 224 214 206 202 200 199 203 207 211 218 222 220 222 232 253 278 293 300 303
329 327 325 324 321 319 318 317 316 315 314 312 311 309 305 302 298 296 295 296 295 294 294 293 291 289 288 286 284 282 280 277 276 274 270 266 264 263 263 262 261 261 261 262 263 263 262 261 262 263 268 274 276 278 280 280 280 277 271 267 267 265 263 257 241 221 208 201 200 203 204 204 205 206 207 211 213 214 222 241 266 285 294 297 298
329 326 325 323 318 316 315 314 313 312 311 310 309 306 303 301 299 297 296 296 295 294 294 292 291 290 289 288 286 284 282 280 279 278 276 274 270 267 266 266 266 266 265 264 263 261 258 258 258 259 265 272 275 275 276 277 280 279 272 266 267 263 254 240 220 205 198 196 199 203 206 207 207 205 206 208 208 214 231 255 275 283 285 287 290
331 330 328 324 320 319 318 317 315 314 313 312 309 306 304 301 299 299 299 299 299 298 297 296 295 294 293 292 290 288 286 284 283 282 281 281 278 273 269 268 268 270 271 270 268 266 263 262 262 263 267 272 272 270 271 274 276 273 268 266 264 248 228 215 205 200 198 198 199 200 202 206 207 207 207 206 211 225 243 262 274 278 282 287 292
336 332 328 323 320 319 319 318 316 316 316 316 314 312 311 307 303 302 302 301 301 300 299 298 298 297 296 295 295 293 291 289 287 285 283 283 283 280 274 270 269 271 273 273 271 270 269 269 270 269 267 265 265 266 269 271 271 268 262 258 245 223 211 209 208 203 199 199 199 199 200 203 206 207 208 210 219 232 246 260 272 282 291 298 301
335 329 324 320 316 315 315 315 314 316 319 320 319 320 320 318 314 311 309 306 303 302 300 299 298 298 296 295 294 293 292 291 290 286 283 281 281 280 277 274 271 269 271 270 266 264 265 266 265 262 257 256 262 266 267 269 269 266 258 244 230 218 211 207 201 195 194 197 198 199 201 205 207 207 211 218 226 235 248 265 279 290 298 305 312
333 329 323 319 316 317 317 316 317 321 325 328 330 329 328 329 326 320 316 312 308 305 303 302 300 298 295 294 292 290 289 289 290 289 286 281 279 279 279 276 270 267 269 268 262 258 257 256 255 255 255 257 260 264 266 268 265 260 252 237 222 212 202 194 188 186 191 194 195 195 199 203 206 208 212 221 230 240 256 273 287 295 300 310 321
336 331 326 322 322 324 324 326 332 338 339 341 341 339 336 335 333 326 323 324 324 319 313 305 301 298 295 292 291 290 290 290 291 292 288 280 276 278 278 275 270 265 264 264 263 260 259 260 262 264 264 260 258 259 262 264 259 251 237 218 202 194 189 185 181 182 188 190 188 190 194 199 203 207 211 221 235 250 266 282 294 301 308 318 324
337 332 327 323 324 327 332 339 345 346 343 345 348 350 350 348 346 343 336 331 332 332 326 316 307 300 295 290 288 290 291 291 292 294 290 280 275 275 273 271 271 267 261 260 261 261 261 264 268 271 271 265 260 258 257 253 244 230 213 197 187 181 180 178 176 177 181 182 184 189 194 197 200 204 212 226 244 260 270 289 303 309 318 325 326
342 333 328 328 330 336 344 348 348 346 348 351 353 355 358 356 352 348 342 335 332 332 333 331 321 308 300 294 288 285 286 287 291 295 292 282 276 274 270 267 268 266 263 262 261 259 258 259 263 267 268 264 261 258 249 235 221 207 195 187 178 171 170 169 169 172 173 176 184 192 195 196 201 211 225 235 246 262 282 303 315 321 326 329 327
348 337 334 337 340 343 346 349 349 348 349 349 350 353 356 354 350 347 344 340 336 334 335 338 338 330 319 307 294 286 285 288 291 293 289 282 278 277 275 272 269 267 264 261 259 256 256 259 261 264 264 260 257 250 234 217 205 197 189 179 169 165 166 168 169 173 177 183 193 199 200 202 212 223 231 238 258 293 311 321 326 327 327 327 325
350 343 338 341 344 343 344 346 343 341 342 343 346 350 352 350 348 348 346 341 338 336 336 339 342 342 336 320 305 300 299 298 295 287 279 277 278 279 276 275 273 267 260 257 258 260 262 266 265 261 259 257 249 235 218 204 196 193 188 176 167 168 172 174 175 179 184 190 196 203 207 209 213 219 228 253 297 319 326 327 327 326 325 323 321
350 345 336 336 342 340 338 337 337 335 335 337 342 347 350 349 350 352 351 347 344 342 339 339 343 347 349 339 323 315 310 305 297 287 278 276 278 277 275 277 277 268 257 256 268 274 276 276 271 262 257 248 233 216 204 194 187 184 179 173 171 172 172 172 173 176 181 187 192 195 197 199 203 215 235 279 319 330 329 327 326 324 321 323 325
347 343 331 326 330 328 326 330 336 338 338 338 342 347 350 350 353 357 359 359 360 360 357 356 359 1 1 356 345 335 324 309 297 292 288 285 283 279 276 279 279 271 262 261 270 274 273 274 271 264 250 229 211 201 194 186 178 175 174 173 172 169 166 167 172 173 174 182 187 181 182 187 194 211 239 298 326 327 324 320 319 321 333 350 5
346 341 325 315 315 315 319 325 329 332 336 338 342 347 350 352 355 360 3 5 10 15 15 13 13 9 3 358 354 348 340 327 311 304 302 298 295 289 281 278 281 281 276 268 257 255 258 259 257 248 228 208 196 187 179 172 167 169 173 173 169 166 170 174 173 167 167 181 190 178 176 179 181 200 252 293 308 309 307 308 318 352 37 45 40
347 341 324 310 306 303 304 311 318 323 327 329 335 345 350 350 354 359 2 4 8 14 14 11 9 6 1 356 355 354 353 349 339 329 324 321 318 310 295 287 290 285 267 237 222 232 240 238 233 221 206 195 184 173 169 169 169 170 172 169 166 168 171 169 163 160 169 188 183 172 172 171 172 194 273 295 295 296 308 329 2 60 81 70 40
348 346 332 309 296 293 292 295 304 314 319 321 327 338 343 346 351 355 358 2 5 8 7 5 3 2 359 358 359 0 3 5 2 357 360 8 11 2 354 357 358 316 208 205 220 238 236 222 205 187 177 175 172 170 174 178 175 168 162 159 162 168 167 164 167 178 179 173 171 170 168 164 157 171 313 310 305 307 326 351 47 89 91 68 39
349 354 350 324 296 287 283 285 291 300 307 314 322 328 334 340 345 348 353 0 3 2 1 3 1 358 357 359 3 7 12 18 20 19 23 32 34 34 48 59 59 64 110 211 250 257 235 209 186 169 163 166 171 174 179 178 170 159 152 153 164 175 179 180 183 178 167 170 176 172 161 149 121 9 324 315 317 328 350 49 100 103 82 58 47
351 358 0 350 323 295 281 278 282 286 291 300 311 320 326 332 337 342 349 356 357 356 2 8 6 2 1 9 21 29 32 33 33 32 32 34 37 47 64 74 69 64 63 59 39 270 208 195 187 179 172 168 168 168 165 162 156 150 149 156 171 187 195 193 178 160 151 162 168 161 156 154 117 332 314 319 337 12 79 104 106 92 64 57 53
352 357 2 2 352 329 302 286 281 281 284 292 302 312 319 324 329 337 346 351 353 359 10 15 13 12 18 30 42 49 48 44 40 35 33 37 44 49 61 81 89 91 93 84 83 112 168 185 189 186 172 160 158 154 146 142 143 144 146 155 173 188 192 185 169 158 158 215 198 182 179 186 226 295 301 314 360 101 126 120 97 73 50 52 57
352 356 0 3 1 350 332 311 293 284 284 288 294 300 307 315 323 334 343 348 354 5 16 19 19 24 32 38 41 44 45 44 42 35 32 40 53 55 57 79 112 141 159 156 147 164 180 186 185 177 163 156 153 147 136 136 141 143 141 144 158 169 176 189 199 218 260 265 255 244 217 211 245 280 285 297 347 129 144 135 42 26 27 33 52
350 356 0 3 1 355 348 340 324 304 292 291 292 294 301 311 320 328 334 342 356 13 23 24 27 35 41 41 41 41 39 36 34 33 32 37 49 55 55 57 74 149 173 174 175 181 183 181 174 164 158 156 154 143 134 133 137 139 143 152 163 177 199 218 232 249 262 260 254 244 222 222 250 268 263 282 323 144 159 163 12 28 35 34 55
347 353 359 4 3 358 354 353 352 346 331 308 300 302 306 312 321 332 337 349 12 31 36 37 43 50 50 45 40 36 32 27 25 27 29 30 38 51 56 51 47 59 98 131 158 174 176 174 169 164 163 162 156 141 134 136 143 153 162 170 182 201 224 238 244 249 249 244 237 226 217 226 246 255 255 278 4 101 124 73 39 25 352 8 54
340 349 357 5 5 2 360 359 358 356 343 311 307 317 326 335 354 23 25 29 40 43 42 48 57 57 48 37 30 28 29 28 27 31 35 38 46 55 55 52 59 75 96 116 132 146 154 158 160 161 159 150 134 126 132 142 155 167 177 189 205 219 226 233 239 238 229 223 217 209 213 230 243 247 249 223 119 108 92 87 272 294 321 25 68
324 339 355 5 5 2 4 6 5 2 354 342 352 23 37 44 60 78 71 55 50 44 44 54 66 62 47 40 38 38 40 41 45 55 64 72 81 86 89 92 97 104 114 124 133 138 142 146 148 146 135 119 114 123 137 150 162 174 191 207 217 216 208 207 212 208 198 195 197 198 209 226 225 210 186 152 137 133 143 190 278 328 17 68 74
309 325 350 7 8 360 358 6 13 18 21 27 47 71 75 69 72 81 75 62 54 47 45 55 67 68 60 54 53 53 56 63 74 83 90 96 102 106 108 109 112 115 119 125 130 133 134 134 129 119 110 107 113 123 133 144 156 167 173 164 172 178 175 172 174 174 172 169 166 160 157 150 138 136 138 136 133 134 164 278 349 21 42 66 79
294 309 338 5 11 4 355 359 11 21 29 36 50 72 85 88 88 87 79 69 62 54 50 55 64 66 61 57 56 56 59 66 74 78 80 85 95 103 108 112 115 117 117 117 117 115 113 111 106 103 102 103 107 111 117 124 127 122 113 110 114 122 132 139 142 143 142 137 131 129 125 120 122 132 139 136 131 134 270 320 5 35 44 47 56